Location: Étang Rond
(42.7927°N, 1.0661°E)
Time: 01:30:50
(UTC+00:00)

Cosmos 1023 Rocket - Pass Details

Date: 08 November 2025
Orbit: 732 x 766 km, 74.1° (Epoch: 07 December)

Event Time Altitude Azimuth Distance (km) Brightness Sun altitude
Exits shadow 04:58:42 18° 330° (NNW) 1,781 6.1 -18.6°
Maximum altitude 05:02:27 62° 254° (WSW) 828 4.4 -17.9°
Drops below altitude 10° 05:07:25 10° 175° (S) 2,226 7.0 -17.0°
Sets 05:09:46 0° 171° (S) 3,144 7.9 -16.6°
